Regional Weather Roundup
Issued by NWS State College, PA

Home | Current Version | Previous Version | Graphics & Text | Print | Product List | Glossary On
Versions: 1 2 3 4 5 6 7 8 9 10 11 12 13 14 15 16 17 18 19 20 21 22 23 24 25 26 27 28 29 30 31 32 33 34 35 36 37 38 39 40 41 42 43 44 45 46 47 48 49 50
000
ASUS41 KCTP 180303
RWRCTP

REGIONAL WEATHER ROUNDUP
NATIONAL WEATHER SERVICE STATE COLLEGE PA
1100 PM EDT TUE OCT 17 2017

Note: "fair" indicates few or no clouds below 12,000 feet with no
significant weather and/or obstructions to visibility.

* = STATION THAT DOES NOT REPORT PRECIPITATION /E.G. RAIN...SNOW...ETC/
    THUNDER OR FOG.

PAZ002>004-007>009-013>016-020>023-029>032-180400-
WESTERN PENNSYLVANIA

CITY           SKY/WX    TMP DP  RH WIND       PRES   REMARKS
ERIE           CLEAR     57  40  52 SW13      30.23R
MEADVILLE      CLEAR     52  39  61 SW8       30.25S
FRANKLIN*      CLEAR     50  38  63 SW9       30.27R
NEW CASTLE     FAIR      47  40  76 S3        30.29R
BEAVER COUNTY  NOT AVBL
BUTLER*        NOT AVBL
PITTSBURGH INT CLEAR     50  40  68 SW3       30.29R
PITTSBURGH     CLEAR     51  36  56 SW7       30.29R
INDIANA*       CLEAR     45  41  87 CALM      30.32R
LATROBE        CLEAR     45  39  81 CALM      30.31S
WASHINGTON CO* CLEAR     44  40  85 SW3       30.33R
$$

PAZ004>006-010>012-017>019-024>028-033>037-041-042-045-046-049>053-180400-
CENTRAL PENNSYLVANIA

CITY           SKY/WX    TMP DP  RH WIND       PRES   REMARKS
BRADFORD       CLOUDY    50  38  63 VRB3      30.26R
DUBOIS         CLEAR     47  36  65 SW5       30.27R
CLEARFIELD     CLEAR     43  39  86 SW3       30.29R
JOHNSTOWN      CLEAR     46  36  68 SW7       30.30R
ALTOONA        CLEAR     49  38  65 SW5       30.30R
STATE COLLEGE  PTCLDY    49  38  66 SW7       30.28S
WILLIAMSPORT   CLEAR     45  41  86 CALM      30.27R
SELINSGROVE    CLEAR     42  42 100 CALM      30.30R
FT INDIANTOWN  CLEAR     41  40  97 CALM      30.31R
CAPITAL CITY   CLEAR     46  38  73 SW5       30.31R
HARRISBURG     CLEAR     54  39  57 CALM      30.30R
YORK           CLEAR     41  40  96 CALM      30.31R
$$

PAZ038>040-043-044-047-048-054-055-060>062-067>071-180400-
EASTERN PENNSYLVANIA

CITY           SKY/WX    TMP DP  RH WIND       PRES   REMARKS
SCRANTON       CLEAR     43  35  73 S3        30.27R
MOUNT POCONO   CLEAR     45  33  63 W12       30.26S
ALLENTOWN      CLEAR     44  36  73 W3        30.30R
QUAKERTOWN*    CLEAR     39  37  93 CALM      30.31S
READING        CLEAR     46  40  79 CALM      30.30R
LANCASTER      CLEAR     45  39  79 CALM      30.31R
COATESVILLE    CLEAR     46  39  76 VRB3      30.32S
POTTSTOWN      CLEAR     41  38  89 CALM      30.33R
BLUE BELL      CLEAR     37  37 100 CALM      30.33R
DOYLESTOWN     CLEAR     45  35  68 CALM      30.30R
WILLOW GROVE   NOT AVBL
NORTH PHILA    CLEAR     49  39  68 CALM      30.33R
PHILADELPHIA   CLEAR     52  41  66 SW7       30.32S
$$




USA.gov is the U.S. government's official web portal to all federal, state and local government web resources and services.